Regional Weather Roundup
Issued by NWS Midland/Odessa, TX

Home | Current Version | Previous Version | Text Only | Print | Product List | Glossary On
Versions: 1 2 3 4 5 6 7 8 9 10 11 12 13 14 15 16 17 18 19 20 21 22 23 24 25 26 27 28 29 30 31 32 33 34 35 36 37 38 39 40 41 42 43 44 45 46 47 48 49 50
000
ASUS44 KMAF 232310
RWRMAF
MIDLAND AREA WEATHER ROUNDUP
NATIONAL WEATHER SERVICE MIDLAND TX
600 PM CDT WED AUG 23 2017

...IN SOUTHWEST TEXAS AND SOUTHEAST NEW MEXICO...

CITY           SKY/WX    TMP DP  RH WIND       PRES   REMARKS
ALPINE         PTSUNNY   81  62  51 NE5       30.16F
ANDREWS          N/A     86  63  44 E10       30.04F
ARTESIA        MOSUNNY   86  61  42 VRB7      30.03F
BIG SPRING     SUNNY     84  65  52 NE6       30.04S
CARLSBAD       CLOUDY    85  67  54 VRB3      30.01F
DRYDEN           N/A     87  67  51 E21       29.96S
FORT STOCKTON  MOSUNNY   91  64  40 CALM      30.00F
GUAD PASS      CLOUDY    75  62  64 NE13      30.19F
HOBBS          MOSUNNY   82  61  47 E9        30.07F
MARFA          CLOUDY    79  64  60 E6        30.14F
MIDLAND AIRPK  SUNNY     87  65  47 E9        30.03F
MIDLAND INTL   MOSUNNY   87  65  47 E9        30.03F
ODESSA         MOSUNNY   86  65  49 CALM      30.04F
PECOS          SUNNY     88  64  44 E3        29.99F
PRESIDIO       FAIR      80  67  65 N12       29.99F
SEMINOLE       SUNNY     85  63  47 E10       30.06F
SNYDER         MOSUNNY   83  68  59 NE16      30.03F
WINK           MOSUNNY   87  65  47 NE9       29.99F
$$
...OTHER STATIONS IN TEXAS...

CITY           SKY/WX    TMP DP  RH WIND       PRES   REMARKS
ABILENE        LGT RAIN  80  72  76 E5        29.99F
AMARILLO       MOSUNNY   79  63  57 E10       30.10F
AUSTIN         PTSUNNY   89  69  51 NW9       29.85F
BROWNSVILLE    SUNNY     90  74  59 NE13      29.85S
CORPUS CHRISTI PTSUNNY   92  66  42 E18       29.84F
DALLAS FTW     PTSUNNY   89  70  53 NE8       29.90F
DEL RIO        CLOUDY    83  70  64 SE8       29.91F
EL PASO        CLOUDY    84  58  40 SE21G29   30.03R THUNDER
HOUSTON INT    CLOUDY    89  73  59 SE15      29.86S
LUBBOCK        MOSUNNY   80  66  62 E9        30.07F
SAN ANGELO     PTSUNNY   89  63  41 E12       29.96F
SAN ANTONIO    PTSUNNY   89  68  49 NW15      29.88S
WACO           CLOUDY    92  69  47 N13       29.88S
WICHITA FALLS  NOT AVBL
$$
...OTHER LOCATIONS IN NEW MEXICO...

CITY           SKY/WX    TMP DP  RH WIND       PRES   REMARKS
ALAMOGORDO     SUNNY     90  55  31 SW8       30.01F
ALBUQUERQUE    CLOUDY    85  53  33 W5        30.13F
CANNON AFB     MOSUNNY   78  66  65 SE9       30.12F
CLOVIS         SUNNY     77  65  66 E10       30.13F
HOLLOMAN AFB   SUNNY     92  57  30 SW5       30.01F
ROSWELL        CLOUDY    86  61  42 CALM      30.04F
RUIDOSO        CLOUDY    72  59  64 SE9       30.28F
SANTA FE       CLOUDY    78  45  30 SW5       30.20F
TRUTH OR CONSE CLOUDY    88  54  31 W12G23    30.05F
TUCUMCARI      MOSUNNY   85  65  51 E13       30.06F
$$



USA.gov is the U.S. government's official web portal to all federal, state and local government web resources and services.